NJ3J Weather Reports


time (UTC)temp
C
wind
direction
speed
KPH
gust
KPH
rain 1hr
cm
rain 24hr
cm
rain mn
cm
humidity
%
barometer
mb
20260906122017 23 222 1.6 4.8 0.00 0.00 0.00 98 1013.6
20260906121537 23 93 0.0 3.2 0.00 0.00 0.00 98 1013.5
20260906121016 23 89 1.6 1.6 0.00 0.00 0.00 98 1013.4
20260906120517 23 264 1.6 3.2 0.00 0.00 0.00 98 1013.2
20260906120017 23 257 0.0 3.2 0.00 0.00 0.00 98 1013.2
20260906115517 23 158 1.6 4.8 0.00 0.00 0.00 98 1013.2
20260906115017 23 13 1.6 6.4 0.00 0.00 0.00 98 1013.1
20260906114557 23 16 1.6 3.2 0.00 0.00 0.00 98 1013.0
20260906114017 23 108 1.6 3.2 0.00 0.00 0.00 97 1012.8
20260906113517 23 128 1.6 4.8 0.00 0.00 0.00 97 1012.7
20260906113017 23 167 1.6 4.8 0.00 0.00 0.00 97 1012.7
20260906112517 23 230 1.6 3.2 0.00 0.00 0.00 97 1012.7
20260906112018 23 243 1.6 4.8 0.00 0.00 0.00 97 1012.7
20260906111517 23 64 1.6 4.8 0.00 0.00 0.00 97 1012.5
20260906111037 23 221 1.6 4.8 0.00 0.00 0.00 97 1012.4
20260906110517 23 199 1.6 4.8 0.00 0.00 0.00 96 1012.4
20260906110017 23 125 1.6 3.2 0.00 0.00 0.00 96 1012.3
20260906105518 23 301 1.6 3.2 0.00 0.00 0.00 96 1012.3
20260906105037 23 56 0.0 3.2 0.00 0.00 0.00 96 1012.3
20260906104518 23 28 1.6 1.6 0.00 0.00 0.00 96 1012.3
20260906104018 23 199 1.6 3.2 0.00 0.00 0.00 96 1012.3
20260906103518 23 178 1.6 4.8 0.00 0.00 0.00 96 1012.3
20260906103015 23 281 1.6 3.2 0.00 0.00 0.00 96 1012.1
20260906102515 23 256 1.6 3.2 0.00 0.00 0.00 96 1012.2
20260906102036 23 174 1.6 4.8 0.00 0.00 0.00 96 1012.1
20260906101518 23 14 1.6 4.8 0.00 0.00 0.00 95 1012.0
20260906101035 24 336 1.6 3.2 0.00 0.00 0.00 95 1011.9
20260906100516 24 56 1.6 3.2 0.00 0.00 0.00 95 1011.9
20260906100016 24 314 1.6 1.6 0.00 0.00 0.00 95 1011.9
20260906095516 24 316 1.6 1.6 0.00 0.00 0.00 95 1012.0
20260906095016 24 316 1.6 1.6 0.00 0.00 0.00 95 1011.9
20260906094536 24 319 1.6 1.6 0.00 0.00 0.00 95 1012.0
20260906094017 24 133 1.6 1.6 0.00 0.00 0.00 95 1012.0
20260906093556 24 132 1.6 1.6 0.00 0.00 0.00 96 1012.0
20260906093036 23 132 1.6 1.6 0.00 0.00 0.00 96 1012.0
20260906092556 23 133 1.6 1.6 0.00 0.00 0.00 96 1011.9
20260906092017 23 134 1.6 1.6 0.00 0.00 0.00 96 1011.9
20260906091517 23 81 1.6 1.6 0.00 0.00 0.00 96 1011.9
20260906091016 23 317 1.6 1.6 0.00 0.00 0.00 96 1011.8
20260906090517 23 318 1.6 1.6 0.00 0.00 0.00 96 1011.9
20260906090037 23 317 1.6 1.6 0.00 0.00 0.00 96 1011.9
20260906085518 24 315 1.6 1.6 0.00 0.00 0.00 96 1011.9
20260906085018 24 317 1.6 1.6 0.00 0.00 0.00 96 1011.9
20260906084518 24 337 1.6 1.6 0.00 0.00 0.00 95 1011.9
20260906084018 24 319 1.6 1.6 0.00 0.00 0.00 95 1011.9
20260906083518 24 320 1.6 1.6 0.00 0.00 0.00 95 1011.8
20260906083018 24 318 1.6 1.6 0.00 0.00 0.00 95 1011.9
20260906082516 24 317 1.6 3.2 0.00 0.00 0.00 95 1011.9
20260906082015 24 314 1.6 3.2 0.00 0.00 0.00 95 1011.9
20260906081515 24 316 1.6 1.6 0.00 0.00 0.00 94 1011.8
20260906081016 24 316 1.6 1.6 0.00 0.00 0.00 94 1011.7
20260906080516 25 128 1.6 1.6 0.00 0.00 0.00 94 1011.7
20260906080016 25 130 1.6 3.2 0.00 0.00 0.00 93 1011.7
20260906075516 25 319 1.6 3.2 0.00 0.00 0.00 93 1011.6
20260906075016 25 316 1.6 1.6 0.00 0.00 0.00 92 1011.6
20260906074536 25 317 1.6 1.6 0.00 0.00 0.00 92 1011.6
20260906074016 25 313 1.6 4.8 0.00 0.00 0.00 92 1011.7
20260906073516 25 151 4.8 12.9 0.00 0.00 0.00 91 1011.8
20260906073016 25 167 6.4 12.9 0.00 0.00 0.00 91 1011.8
20260906072556 25 314 1.6 6.4 0.00 0.00 0.00 91 1011.7
20260906072016 25 220 3.2 6.4 0.00 0.00 0.00 90 1011.8
20260906071516 25 167 4.8 8.0 0.00 0.00 0.00 90 1011.8
20260906071016 25 158 3.2 8.0 0.00 0.00 0.00 90 1011.7
20260906070517 25 236 3.2 11.3 0.00 0.00 0.00 92 1011.8
20260906070016 25 133 1.6 11.3 0.00 0.00 0.00 92 1011.8
20260906065516 25 314 1.6 3.2 0.00 0.00 0.00 92 1011.8
20260906065017 25 315 1.6 4.8 0.00 0.00 0.00 92 1011.8
20260906064517 25 312 3.2 8.0 0.00 0.00 0.00 92 1011.8
20260906064017 25 311 4.8 9.7 0.00 0.00 0.00 92 1011.8
20260906063517 25 310 6.4 11.3 0.00 0.00 0.00 91 1011.8
20260906063017 25 307 6.4 12.9 0.00 0.00 0.00 91 1011.8
20260906062517 25 309 1.6 9.7 0.00 0.00 0.00 91 1011.8
20260906062017 25 309 1.6 6.4 0.00 0.00 0.00 91 1011.8
20260906061537 25 315 1.6 4.8 0.00 0.00 0.00 91 1011.9
20260906061017 25 315 1.6 4.8 0.00 0.00 0.00 91 1011.9
20260906060517 25 315 1.6 3.2 0.00 0.00 0.00 91 1011.9
20260906060018 25 312 1.6 4.8 0.00 0.00 0.00 91 1011.9
20260906055518 25 312 1.6 6.4 0.00 0.00 0.00 90 1012.0
20260906055018 25 318 1.6 4.8 0.00 0.00 0.00 90 1012.0
20260906054518 25 295 3.2 6.4 0.00 0.00 0.00 90 1012.0
20260906054018 25 287 4.8 6.4 0.00 0.00 0.00 90 1012.0
20260906053538 25 296 1.6 8.0 0.00 0.00 0.00 89 1012.0
20260906053018 25 320 1.6 4.8 0.00 0.00 0.00 89 1012.0
20260906052518 26 314 1.6 1.6 0.00 0.00 0.00 90 1012.0
20260906052018 26 317 1.6 1.6 0.00 0.00 0.00 90 1012.1
20260906051515 26 342 1.6 1.6 0.00 0.00 0.00 89 1012.2
20260906051015 26 318 1.6 1.6 0.00 0.00 0.00 89 1012.2
20260906050515 26 315 1.6 1.6 0.00 0.00 0.00 89 1012.2
20260906050016 26 316 1.6 3.2 0.00 0.00 0.00 89 1012.3
20260906045516 26 316 1.6 3.2 0.00 0.00 0.00 90 1012.3
20260906045016 26 313 1.6 1.6 0.00 0.00 0.00 90 1012.3
20260906044536 26 315 1.6 1.6 0.00 0.00 0.00 90 1012.3
20260906044016 26 319 1.6 1.6 0.00 0.00 0.00 90 1012.3
20260906043536 26 317 1.6 1.6 0.00 0.00 0.00 90 1012.3
20260906043016 26 318 1.6 3.2 0.00 0.00 0.00 89 1012.4
20260906042536 26 316 1.6 1.6 0.00 0.00 0.00 89 1012.3
20260906042016 26 318 1.6 1.6 0.00 0.00 0.00 89 1012.3
20260906041516 26 316 1.6 3.2 0.00 0.00 0.00 88 1012.3
20260906041017 26 320 1.6 4.8 0.00 0.00 0.00 88 1012.3
20260906040537 26 316 1.6 1.6 0.00 0.00 0.00 87 1012.3
20260906040017 26 315 1.6 1.6 0.00 0.00 0.00 86 1012.3
20260906035517 26 321 1.6 1.6 0.00 0.00 0.00 86 1012.3
20260906035016 26 318 1.6 1.6 0.00 0.00 0.00 86 1012.3
20260906034517 26 314 1.6 1.6 0.00 0.00 0.00 85 1012.1
20260906034017 26 311 1.6 3.2 0.00 0.00 0.00 86 1012.1
20260906033517 26 313 1.6 1.6 0.00 0.00 0.00 86 1012.1
20260906033037 26 313 1.6 1.6 0.00 0.00 0.00 86 1012.0
20260906032537 26 309 1.6 3.2 0.00 0.00 0.00 87 1011.9
20260906032017 26 316 1.6 3.2 0.00 0.00 0.00 87 1011.8
20260906031517 26 311 1.6 1.6 0.00 0.00 0.00 88 1011.7
20260906031017 26 276 1.6 9.7 0.00 0.00 0.00 89 1011.6
20260906030517 26 286 1.6 6.4 0.00 0.00 0.00 89 1011.6
20260906030017 26 269 1.6 4.8 0.00 0.00 0.00 88 1011.5
20260906025517 26 287 1.6 4.8 0.00 0.00 0.00 88 1011.5
20260906025017 26 291 1.6 4.8 0.00 0.00 0.00 88 1011.6
20260906024518 26 285 1.6 3.2 0.00 0.00 0.00 88 1011.5
20260906024018 27 290 1.6 6.4 0.00 0.00 0.00 87 1011.5
20260906023518 27 235 1.6 3.2 0.00 0.00 0.00 87 1011.5
20260906023018 27 274 1.6 8.0 0.00 0.00 0.00 86 1011.5
20260906022518 27 292 1.6 8.0 0.00 0.00 0.00 86 1011.5
20260906022019 27 269 1.6 4.8 0.00 0.00 0.00 86 1011.5
20260906021515 27 275 1.6 4.8 0.00 0.00 0.00 85 1011.4
20260906021018 27 279 1.6 4.8 0.00 0.00 0.00 85 1011.4
20260906020516 27 296 1.6 8.0 0.00 0.00 0.00 84 1011.4
20260906020016 27 306 4.8 9.7 0.00 0.00 0.00 83 1011.3
20260906015516 27 314 1.6 6.4 0.00 0.00 0.00 83 1011.3
20260906015016 27 308 3.2 9.7 0.00 0.00 0.00 83 1011.3
20260906014516 27 312 1.6 6.4 0.00 0.00 0.00 82 1011.2
20260906014016 27 312 1.6 8.0 0.00 0.00 0.00 82 1011.2
20260906013516 27 315 1.6 1.6 0.00 0.00 0.00 81 1011.2
20260906013016 28 316 1.6 1.6 0.00 0.00 0.00 81 1011.2
20260906012516 28 316 1.6 1.6 0.00 0.00 0.00 81 1011.2
20260906012056 28 180 1.6 8.0 0.00 0.00 0.00 80 1011.2
20260906011516 28 174 1.6 8.0 0.00 0.00 0.00 80 1011.2
20260906011017 28 312 1.6 8.0 0.00 0.00 0.00 78 1011.1
20260906010516 28 310 6.4 9.7 0.00 0.00 0.00 77 1011.1
20260906010017 28 307 4.8 9.7 0.00 0.00 0.00 76 1011.1
20260906005517 29 306 4.8 8.0 0.00 0.00 0.00 75 1011.1
20260906005017 29 293 3.2 6.4 0.00 0.00 0.00 74 1011.0
20260906004517 29 309 4.8 8.0 0.00 0.00 0.00 73 1011.0
20260906004017 30 310 1.6 6.4 0.00 0.00 0.00 72 1011.0
20260906003517 30 312 1.6 6.4 0.00 0.00 0.00 71 1011.0
20260906003017 30 301 1.6 6.4 0.00 0.00 0.00 69 1010.9
20260906002537 31 240 1.6 4.8 0.00 0.00 0.00 67 1010.9
20260906002017 31 271 1.6 6.4 0.00 0.00 0.00 66 1010.9
20260906001517 31 292 3.2 9.7 0.00 0.00 0.00 65 1011.0
20260906001017 31 313 4.8 9.7 0.00 0.00 0.00 64 1011.0
20260906000518 32 311 3.2 8.0 0.00 0.00 0.00 62 1011.1
20260906000018 32 317 1.6 6.4 0.00 0.00 0.00 61 1011.1
20260905235538 32 314 1.6 4.8 0.00 0.00 0.00 58 1011.2
20260905235017 33 311 3.2 6.4 0.00 0.00 0.00 58 1011.2
20260905234518 33 308 3.2 4.8 0.00 0.00 0.00 56 1011.2
20260905234018 34 301 3.2 4.8 0.00 0.00 0.00 53 1011.1
20260905233518 35 320 0.0 1.6 0.00 0.00 0.00 50 1011.1
20260905233017 35 310 0.0 1.6 0.00 0.00 0.00 49 1011.1
20260905232518 36 290 0.0 1.6 0.00 0.00 0.00 46 1011.0
20260905232018 37 298 0.0 1.6 0.00 0.00 0.00 45 1011.1
20260905231518 37 318 0.0 1.6 0.00 0.00 0.00 42 1011.1
20260905231016 37 349 1.6 3.2 0.00 0.00 0.00 42 1011.1
20260905230518 37 289 0.0 1.6 0.00 0.00 0.00 42 1011.2
20260905230038 37 328 1.6 4.8 0.00 0.00 0.00 41 1011.1
20260905225518 37 350 1.6 6.4 0.00 0.00 0.00 42 1011.1
20260905225016 37 338 1.6 3.2 0.00 0.00 0.00 42 1011.1
20260905224515 37 339 1.6 4.8 0.00 0.00 0.00 42 1011.1
20260905224016 37 328 1.6 3.2 0.00 0.00 0.00 42 1011.0
20260905223536 37 312 3.2 8.0 0.00 0.00 0.00 42 1011.0
20260905223036 37 305 1.6 4.8 0.00 0.00 0.00 43 1011.0
20260905222516 37 330 1.6 4.8 0.00 0.00 0.00 43 1011.0
20260905222016 37 341 1.6 3.2 0.00 0.00 0.00 44 1011.1
20260905221536 37 332 1.6 4.8 0.00 0.00 0.00 44 1011.1
20260905221036 37 306 0.0 3.2 0.00 0.00 0.00 44 1011.1
20260905220516 37 335 1.6 3.2 0.00 0.00 0.00 43 1011.2
20260905220016 37 304 1.6 4.8 0.00 0.00 0.00 43 1011.2
20260905215516 37 311 1.6 3.2 0.00 0.00 0.00 44 1011.1
20260905215017 37 306 3.2 6.4 0.00 0.00 0.00 44 1011.2
20260905214517 37 308 3.2 8.0 0.00 0.00 0.00 44 1011.2
20260905214017 37 299 3.2 6.4 0.00 0.00 0.00 42 1011.3
20260905213537 37 232 1.6 4.8 0.00 0.00 0.00 41 1011.3
20260905213037 37 226 3.2 6.4 0.00 0.00 0.00 40 1011.3
20260905212517 37 233 3.2 6.4 0.00 0.00 0.00 42 1011.4
20260905212017 37 64 1.6 4.8 0.00 0.00 0.00 42 1011.3
20260905211517 37 339 1.6 4.8 0.00 0.00 0.00 43 1011.3
20260905211017 37 351 1.6 6.4 0.00 0.00 0.00 43 1011.3
20260905210517 37 282 6.4 11.3 0.00 0.00 0.00 42 1011.4
20260905210017 37 278 4.8 8.0 0.00 0.00 0.00 43 1011.4
20260905205517 38 297 4.8 11.3 0.00 0.00 0.00 41 1011.4
20260905205018 38 249 3.2 4.8 0.00 0.00 0.00 41 1011.5
20260905204517 37 241 1.6 8.0 0.00 0.00 0.00 42 1011.5
20260905204018 37 298 3.2 11.3 0.00 0.00 0.00 42 1011.6
20260905203518 37 255 3.2 9.7 0.00 0.00 0.00 44 1011.6
20260905203018 37 291 6.4 12.9 0.00 0.00 0.00 44 1011.7
20260905202538 37 265 3.2 11.3 0.00 0.00 0.00 43 1011.7
20260905202018 37 308 4.8 8.0 0.00 0.00 0.00 43 1011.8
20260905201558 37 241 3.2 8.0 0.00 0.00 0.00 44 1011.9
20260905201018 37 279 3.2 11.3 0.00 0.00 0.00 45 1011.9
20260905200018 37 258 3.2 6.4 0.00 0.00 0.00 45 1012.1
20260905195515 37 219 3.2 6.4 0.00 0.03 0.00 44 1012.2
20260905195015 37 230 3.2 6.4 0.00 0.13 0.00 45 1012.3
20260905194515 37 349 1.6 4.8 0.00 0.23 0.00 44 1012.4
20260905194016 37 246 1.6 4.8 0.00 0.41 0.00 44 1012.4
20260905193516 36 270 4.8 9.7 0.00 0.53 0.00 46 1012.5
20260905193016 36 239 3.2 6.4 0.00 0.69 0.00 47 1012.6
20260905192516 36 297 4.8 11.3 0.00 0.74 0.00 48 1012.7
20260905192036 36 287 3.2 8.0 0.00 0.81 0.00 49 1012.9
20260905191516 36 231 1.6 9.7 0.00 0.81 0.00 49 1013.0
20260905191016 37 260 4.8 11.3 0.00 0.81 0.00 47 1013.0
20260905190516 36 268 3.2 9.7 0.00 0.81 0.00 46 1013.0
20260905190016 36 285 4.8 9.7 0.00 0.81 0.00 45 1013.0
20260905185516 36 322 4.8 9.7 0.00 0.81 0.00 46 1013.0
20260905185056 36 288 8.0 12.9 0.00 0.81 0.00 46 1013.0
20260905184516 36 281 3.2 8.0 0.00 0.81 0.00 47 1013.1
20260905184016 37 300 4.8 9.7 0.00 0.81 0.00 46 1013.2
20260905183557 37 303 3.2 9.7 0.00 0.81 0.00 46 1013.2
20260905183016 37 316 3.2 8.0 0.00 0.81 0.00 46 1013.3
20260905182517 36 320 3.2 6.4 0.00 0.81 0.00 46 1013.3
20260905182017 36 299 3.2 6.4 0.00 0.81 0.00 47 1013.4
20260905181517 36 315 3.2 8.0 0.00 0.81 0.00 49 1013.4
20260905181017 36 295 1.6 4.8 0.00 0.81 0.00 49 1013.4
20260905180517 36 328 3.2 6.4 0.00 0.81 0.00 48 1013.6
20260905180017 36 335 3.2 8.0 0.00 0.81 0.00 48 1013.6
20260905175517 36 115 3.2 9.7 0.00 0.81 0.00 47 1013.6
20260905175018 36 116 1.6 4.8 0.00 0.81 0.00 47 1013.6
20260905174517 35 292 1.6 4.8 0.00 0.81 0.00 48 1013.6
20260905174017 35 317 1.6 6.4 0.00 0.81 0.00 49 1013.7
20260905173517 35 8 1.6 4.8 0.00 0.81 0.00 51 1013.8
20260905173017 35 355 1.6 6.4 0.00 0.81 0.00 50 1013.9
20260905172518 36 360 3.2 6.4 0.00 0.81 0.00 49 1013.9
20260905172018 36 325 3.2 8.0 0.00 0.81 0.00 47 1013.9
20260905171518 36 314 3.2 8.0 0.00 0.81 0.00 49 1013.8
20260905171038 35 280 3.2 6.4 0.00 0.81 0.00 50 1013.9
20260905170518 35 243 1.6 4.8 0.00 0.81 0.00 49 1014.0
20260905170018 35 277 4.8 11.3 0.00 0.81 0.00 49 1014.0
20260905165515 35 287 6.4 14.5 0.00 0.81 0.00 50 1014.0
20260905165018 35 293 4.8 11.3 0.00 0.81 0.00 50 1014.1
20260905164516 35 277 3.2 8.0 0.00 0.81 0.00 51 1014.1
20260905164016 35 295 4.8 9.7 0.00 0.81 0.00 52 1014.2
20260905163516 35 296 4.8 11.3 0.00 0.81 0.00 52 1014.2
20260905163016 35 284 4.8 11.3 0.00 0.81 0.00 51 1014.3
20260905162516 35 286 3.2 11.3 0.00 0.81 0.00 51 1014.4
20260905162016 35 275 3.2 8.0 0.00 0.81 0.00 52 1014.4
20260905161536 35 241 3.2 6.4 0.00 0.81 0.00 52 1014.4
20260905161036 35 247 3.2 4.8 0.00 0.81 0.00 52 1014.4
20260905160516 35 243 1.6 4.8 0.00 0.81 0.00 53 1014.4
20260905160016 35 217 3.2 6.4 0.00 0.81 0.00 54 1014.4
20260905155516 35 269 3.2 6.4 0.00 0.81 0.00 55 1014.5
20260905155016 35 283 3.2 9.7 0.00 0.81 0.00 55 1014.5
20260905154517 34 280 1.6 4.8 0.00 0.81 0.00 57 1014.6
20260905154016 34 289 6.4 12.9 0.00 0.81 0.00 58 1014.6
20260905153517 34 292 4.8 11.3 0.00 0.81 0.00 58 1014.6
20260905153017 34 301 4.8 8.0 0.00 0.81 0.00 59 1014.6
20260905152517 34 281 3.2 8.0 0.00 0.81 0.00 58 1014.7
20260905152017 34 285 4.8 11.3 0.00 0.81 0.00 59 1014.6
20260905151517 33 249 1.6 4.8 0.00 0.81 0.00 60 1014.6
20260905151017 33 234 1.6 4.8 0.00 0.81 0.00 60 1014.6
20260905150517 33 281 3.2 8.0 0.00 0.81 0.00 61 1014.7
20260905150017 33 298 1.6 4.8 0.00 0.81 0.00 62 1014.7
20260905145517 32 296 1.6 6.4 0.00 0.81 0.00 63 1014.7
20260905145017 32 278 3.2 6.4 0.00 0.81 0.00 64 1014.6
20260905144517 32 276 1.6 3.2 0.00 0.81 0.00 66 1014.6
20260905144017 31 315 1.6 12.9 0.00 0.81 0.00 67 1014.6
20260905143518 31 305 8.0 16.1 0.00 0.81 0.00 67 1014.6
20260905143018 31 281 3.2 8.0 0.00 0.81 0.00 68 1014.7
20260905142518 31 288 3.2 6.4 0.00 0.81 0.00 68 1014.7
20260905142018 30 271 3.2 6.4 0.00 0.81 0.00 70 1014.7
20260905141518 30 286 4.8 11.3 0.00 0.81 0.00 72 1014.7
20260905141018 30 198 3.2 8.0 0.00 0.81 0.00 72 1014.7
20260905140518 29 283 4.8 12.9 0.00 0.81 0.00 73 1014.7
20260905140018 28 308 4.8 14.5 0.00 0.81 0.00 75 1014.7
20260905135538 28 295 3.2 6.4 0.00 0.81 0.00 76 1014.6
20260905135015 28 318 1.6 3.2 0.00 0.81 0.00 78 1014.6
20260905134536 27 290 1.6 6.4 0.00 0.81 0.00 80 1014.7
20260905134023 27 269 3.2 6.4 0.00 0.81 0.00 82 1014.6
20260905133516 27 211 3.2 8.0 0.00 0.81 0.00 83 1014.6
20260905133016 26 294 3.2 8.0 0.00 0.81 0.00 85 1014.6
20260905132536 26 278 3.2 6.4 0.00 0.81 0.00 88 1014.6
20260905132016 25 295 1.6 8.0 0.00 0.81 0.00 90 1014.6
20260905131516 25 299 1.6 6.4 0.00 0.81 0.00 92 1014.6
20260905131036 25 314 1.6 3.2 0.00 0.81 0.00 95 1014.6
20260905130556 25 313 1.6 4.8 0.00 0.81 0.00 97 1014.5
20260905130016 24 316 1.6 1.6 0.00 0.81 0.00 98 1014.5
20260905125516 24 316 1.6 1.6 0.00 0.81 0.00 99 1014.5
20260905125016 24 316 1.6 3.2 0.00 0.81 0.00 99 1014.4
20260905124537 23 189 1.6 6.4 0.00 0.81 0.00 99 1014.4
20260905124016 23 312 1.6 8.0 0.00 0.81 0.00 99 1014.4
20260905123517 23 317 1.6 1.6 0.00 0.81 0.00 99 1014.4
20260905123016 23 318 1.6 4.8 0.00 0.81 0.00 99 1014.3
20260905122517 23 318 1.6 4.8 0.00 0.81 0.00 99 1014.3